www.pogodaiklimat.ru

Погода и климат >> Архив погоды >> Южная Африка >> Porterville


ПОГОДА в Porterville

  • Прогноз погоды в Porterville
  • Монитор погоды в Porterville
  • Климат города

АРХИВ ПОГОДЫ в Porterville

Время (UTC), дата Ветер
(напр.,м/с)
 
Видим.   Явления Облачность Т
(С)
Тd
(С)
f
(%)
Тe
(С)
Тes
(С)
Комфортность P
(гПа)
Po
(гПа)
Тmin
(С)
Tmax
(С)
R
(мм)
R24
(мм)
S
(см)
03 9.07 С 1 н/о н/о +7.4 +5.3 87 +6 +6 854.8 1007.1 +5.9 +21.8
06 9.07 штиль 0 н/о н/о +8.0 +5.4 84 +7 +7 855.6 1007.6 +5.9
12 9.07 ЮЗ 2 н/о н/о +25.0 +12.1 45 +27 +27 жарко 863.3 1006.5 +5.9 +25.0
15 9.07 штиль 0 н/о н/о +23.4 +15.8 62 +28 +28 душно 862.1 1006.2 +23.4 +26.8
18 9.07 штиль 0 н/о н/о +12.2 +10.1 87 +12 +12 857.3 1007.2 +11.4 +26.8
21 9.07 штиль 0 н/о н/о +10.2 +8.3 88 +9 +9 856.7 1007.6 +8.7 +26.8
00 10.07 З 1 н/о н/о +7.9 +6.5 91 +7 +7 855.4 1007.5 +6.6 +26.8
03 10.07 СВ 1 н/о н/о +7.2 +5.9 91 +6 +6 855.2 1007.7 +6.5 +26.8
06 10.07 С 2 н/о н/о +10.3 +9.2 93 +9 +9 857.9 1009.0 +6.4
09 10.07 С 1 н/о н/о +17.5 +12.0 70 +19 +19 861.9 1009.3 +6.4 +17.8
12 10.07 З 2 н/о н/о +21.5 +13.2 59 +24 +24 комфорт 862.5 1007.6 +6.4 +22.5
15 10.07 штиль 0 н/о н/о +20.0 +14.0 68 +22 +22 комфорт 860.7 1006.5 +20.0 +22.8
18 10.07 ЮВ 1 н/о н/о +10.3 +8.7 90 +10 +10 855.9 1006.6 +10.3 +22.8 0.2
21 10.07 ЮВ 1 н/о н/о +8.6 +7.5 93 +8 +8 854.9 1006.5 +7.7 +22.8
00 11.07 СЗ 1 н/о н/о +10.2 +6.7 79 +10 +10 854.7 1005.3 +6.8 +22.8
03 11.07 СВ 2 н/о н/о +13.7 +6.8 63 +14 +14 854.8 1003.4 +6.8 +22.8
06 11.07 С 3 н/о н/о +15.5 +6.8 56 +15 +15 854.6 1002.2 +6.8 0.2
09 11.07 С 5 н/о н/о +21.8 +8.4 42 +23 +23 комфорт 858.3 1002.8 +6.8 +21.9
12 11.07 СЗ 5 н/о н/о +24.0 +10.1 41 +25 +25 комфорт 857.1 1000.3 +6.8 +24.6
15 11.07 С 3 н/о н/о +20.9 +9.6 48 +23 +23 комфорт 854.7 999.3 +20.8 +24.6
18 11.07 С 3 н/о н/о +16.7 +6.9 52 +17 +17 853.4 1000.1 +15.4 +24.6
21 11.07 СЗ 4 н/о н/о +17.0 +4.1 42 +17 +17 853.6 1000.2 +15.4 +24.6
00 12.07 СЗ 5 н/о н/о +16.8 +3.9 42 +16 +16 853.0 999.6 +15.4 +24.6
03 12.07 СЗ 3 н/о н/о +13.4 +4.8 56 +13 +13 851.7 1000.0 +13.4 +24.6
06 12.07 СЗ 4 н/о н/о +14.9 +6.5 57 +14 +14 854.3 1002.2 +13.4
09 12.07 С 1 н/о н/о +11.3 +9.7 90 +11 +11 854.4 1004.4 +11.1 +15.1
12 12.07 СВ 3 н/о н/о +12.2 +8.7 79 +11 +11 853.9 1003.2 +11.0 +15.1 1
15 12.07 СВ 2 н/о н/о +11.7 +9.6 87 +11 +11 853.9 1003.5 +11.6 +15.1
18 12.07 СЗ 1 н/о н/о +10.9 +8.6 86 +11 +11 854.8 1005.0 +10.9 +15.1 1
21 12.07 В 1 н/о н/о +9.9 +8.1 89 +9 +9 854.8 1005.6 +9.6 +15.1
00 13.07 штиль 0 н/о н/о +8.4 +7.0 91 +7 +7 854.5 1006.1 +8.4 +15.1 1
03 13.07 штиль 0 н/о н/о +6.7 +5.3 91 +6 +6 853.7 1006.2 +6.7 +15.1
06 13.07 С 2 н/о н/о +7.6 +6.0 90 +5 +5 855.3 1007.5 +5.1 1
09 13.07 С 3 н/о н/о +11.7 +6.8 72 +10 +10 858.8 1009.2 +5.1 +11.9
12 13.07 СЗ 2 н/о н/о +11.8 +7.5 75 +11 +11 858.2 1008.4 +5.1 +14.3 0.2
15 13.07 З 1 н/о н/о +11.4 +8.1 80 +11 +11 858.3 1008.8 +10.5 +14.3
18 13.07 С 2 н/о н/о +9.8 +7.2 84 +8 +8 859.2 1010.8 +9.4 +14.3 2
21 13.07 штиль 0 н/о н/о +9.1 +7.2 88 +8 +8 860.1 1012.2 +8.6 +14.3
00 14.07 штиль 0 н/о н/о +7.4 +5.7 89 +6 +6 859.7 1012.8 +7.4 +14.3 3
03 14.07 ЮВ 1 н/о н/о +7.3 +5.9 91 +6 +6 860.4 1013.7 +5.2 +14.3
06 14.07 Ю 1 н/о н/о +4.1 +3.0 93 +3 +3 860.5 1015.8 +4.1 3
09 14.07 З 2 н/о н/о +9.5 +7.9 90 +8 +8 864.9 1017.6 +3.8 +11.0
12 14.07 СВ 1 н/о н/о +15.8 +8.3 61 +17 +17 866.8 1015.9 +3.8 +15.9
15 14.07 Ю 1 н/о н/о +15.0 +6.3 56 +16 +16 866.5 1016.0 +15.0 +16.7
18 14.07 Ю 1 н/о н/о +11.5 +4.7 63 +12 +12 865.8 1017.4 +9.8 +16.7
21 14.07 СЗ 1 н/о н/о +6.7 +3.5 80 +6 +6 863.8 1018.1 +6.4 +16.7
00 15.07 СЗ 1 н/о н/о +6.7 +3.5 80 +6 +6 863.8 1018.1 +6.4 +16.7
03 15.07 З 2 н/о н/о +7.1 +2.6 73 +5 +5 863.5 1017.4 +4.5 +16.7
06 15.07 З 2 н/о н/о +6.0 +2.2 77 +4 +4 863.7 1018.4 +4.5
09 15.07 З 3 н/о н/о +12.8 +5.7 62 +12 +12 867.8 1018.8 +4.5 +12.8
12 15.07 З 2 н/о н/о +16.7 +4.1 43 +17 +17 867.4 1015.9 +4.5 +16.8
15 15.07 З 2 н/о н/о +17.2 +7.3 52 +18 +18 866.6 1014.8 +16.6 +18.4
18 15.07 СВ 1 н/о н/о +12.9 +3.8 54 +13 +13 863.8 1014.2 +9.6 +18.4
21 15.07 СВ 1 н/о н/о +9.0 +2.8 65 +9 +9 862.0 1014.5 +8.5 +18.4
00 16.07 СЗ 1 н/о н/о +11.1 +2.1 54 +11 +11 862.0 1013.2 +6.1 +18.4

 

Местоположение метеостанции Porterville (Южная Африка): широта -30.01 долгота 18.98 высота над уровнем моря 123 м.

В архиве по умолчанию представлена погода в Porterville за последнюю неделю. Архивные данные за месяц целиком и за предыдущие месяцы, начиная с января 2011 года, Вы можете получить, выбрав интересующий диапазон дат из раскрывающегося списка и нажав кнопку "Ввод!".


*Определитесь, кто Вы:
робот инопланетянин человек

Внимание! Время в таблицах - всемирное. Для получения местного времени необходимо прибавить поправку, которая в Porterville равна 2 ч.

Смотрите также архив погоды в соседних городах и на ближайших метеорологических станциях:

Погода в Pofadder (Южная Африка) (105 км)
Погода в Springbok (Южная Африка) (111 км)
Погода в Nieuwoudtville (Южная Африка) (148 км)
Погода в Brandvlei (Южная Африка) (153 км)
Погода в Koingnaas (Южная Африка) (165 км)
Погода в Calvinia (Южная Африка) (178 км)
Погода в Vredendal (Южная Африка) (189 км)
Погода в Vioolsdrif (Южная Африка) (198 км)
Погода в Augrabies Falls (Южная Африка) (205 км)
Погода в Port Nolloth (Южная Африка) (222 км)

Пояснения к столбцам:

Ветер - указаны скорость ветра в м/с - средняя за 10 мин, порывы в срок и между сроками (в фигурных скобках) и направление, откуда дует ветер: С - северный, СВ - северо-восточный, В - восточный, ЮВ - юго-восточный, Ю - южный, ЮЗ - юго-западный, З - западный, СЗ - северо-западный.
Видимость - горизонтальная дальность видимости в метрах или километрах. При видимости от 1 до 10 км при отсутствии осадков обычно наблюдается дымка, при ухудшении видимости до 1 км и менее - туман. В сухую погоду видимость может ухудшаться дымом, пылью или мглою.
Явления - указаны атмосферные явления, наблюдавшиеся в срок или в последний час перед сроком; фигурными скобками обозначены явления, наблюдавшиеся между сроками (за 1-3 часа до срока); квадратными скобками обозначены град или гололедные отложения с указанием их диаметра в мм.
Облачность - указаны через наклонную черту общая и нижняя облачность в баллах и высота нижней границы облаков в метрах; квадратными скобками обозначены формы облаков: Ci - перистые, Cs - перисто-слоистые, Cc - перисто-кучевые, Ac - высококучевые, As - высокослоистые, Sc - слоисто-кучевые, Ns - слоисто-дождевые, Cu - кучевые, Cb - кучево-дождевые. Подробнее классификацию облаков см. в Атласе облаков (PDF).
T - Температура воздуха - температура, измеренная на высоте 2 м над землей.
Td - Температура точки росы - температура, при понижении до которой содержащийся в воздухе водяной пар достигнет насыщения.
f - Относительная влажность воздуха - влажноcть воздуха, измеренная на высоте 2 м над землей.
Te - Эффективная температура - температура, которую ощущает одетый по сезону человек в тени. Характеристика душности погоды. При расчете учитывается влияние влажности воздуха и скорости ветра на теплоощущения человека.
Tes - Эффективная температура на солнце - температура, которую ощущает человек, с поправкой на солнечный нагрев. Характеристика знойности погоды. Зависит от высоты солнца над горизонтом, облачности и скорости ветра. Ночью, в пасмурную погоду, а также при ветре 12 м/с и более поправка равна нулю.
P - Атмосферное давление - приведенное к уровню моря атмосферное давление.
Po - Атмосферное давление - измеренное на уровне метеостанции атмосферное давление.
Tmin - Минимальная температура - минимум температуры воздуха на высоте 2 м над землей.
Tmax - Максимальная температура - максимум температуры воздуха на высоте 2 м над землей.
R - Количество осадков - Количество выпавших осадков за период времени, мм. При наведении курсора мыши на число - период времени, за который выпало указанное количество осадков.
R24 - Количество осадков - Количество выпавших осадков за 24 часа, мм.
S - Снежный покров - Высота снежного покрова, см. При наведении курсора мыши на число - состояние снежного покрова и степень покрытия местности в баллах.